Location: Lake Arresoe
(56.0000°N, 12.5000°E)
Time: 10:44:28
(UTC+02:00)

Cosmos 1674 - Pass Details

Date: 16 August 2020
Orbit: 495 x 517 km, 82.5° (Epoch: 23 September)

Event Time Altitude Azimuth Distance (km) Brightness Sun altitude
Rises 00:50:40 0° 352° (N) 2,603 7.9 -20.2°
Reaches altitude 10° 00:52:55 10° 2° (N) 1,717 6.5 -20.2°
Maximum altitude 00:56:25 35° 70° (ENE) 821 3.8 -20.2°
Enters shadow 00:57:16 31° 100° (E) 901 3.7 -20.2°
